FW1218 Weather Reports


time (UTC)temp
F
wind
direction
speed
knots
gust
knots
rain 1hr
in
rain 24hr
in
rain mn
in
humidity
%
barometer
mb
20260507070015 50 53 0.0 1.7 0.01 0.57 0.30 96 1010.5
20260507064513 50 46 0.0 0.9 0.01 0.57 0.30 96 1010.3
20260507063012 50 328 0.0 0.9 0.02 0.57 0.30 96 1010.5
20260507061512 50 337 0.0 0.9 0.02 0.56 0.28 95 1010.5
20260507060014 50 27 0.0 0.0 0.06 0.56 0.28 95 1010.4
20260507054512 50 27 0.0 0.9 0.17 0.56 0.28 95 1010.2
20260507053010 50 27 0.0 1.7 0.19 0.56 0.28 94 1010.2
20260507051508 50 17 0.9 3.5 0.20 0.55 0.27 94 1010.4
20260507050012 51 42 3.5 6.1 0.20 0.50 0.22 93 1010.5
20260507044504 52 30 0.0 2.6 0.14 0.39 0.11 93 1010.4
20260507043006 52 56 0.0 1.7 0.13 0.37 0.09 93 1010.1
20260507041604 53 343 0.9 3.5 0.11 0.35 0.07 92 1009.8
20260507040055 54 56 0.0 2.6 0.06 0.30 0.02 90 1009.8
20260507034554 55 46 0.9 3.5 0.01 0.25 0.25 86 1009.6
20260507033049 55 49 0.0 3.5 0.00 0.24 0.24 84 1009.6
20260507031548 56 11 0.9 7.0 0.00 0.24 0.24 85 1009.4
20260507030045 56 4 1.7 3.5 0.00 0.24 0.24 84 1009.0
20260507024550 56 355 1.7 7.0 0.00 0.24 0.24 84 1009.3
20260507023052 57 8 0.9 3.5 0.00 0.24 0.24 83 1009.0
20260507021541 57 352 1.7 7.0 0.00 0.24 0.24 83 1009.1
20260507020049 57 300 4.3 7.8 0.00 0.24 0.24 84 1009.3
20260507014537 58 33 1.7 5.2 0.00 0.24 0.24 86 1009.3
20260507013035 58 295 1.7 4.3 0.00 0.24 0.24 86 1009.3
20260507011542 59 278 3.5 6.1 0.00 0.24 0.24 86 1009.3
20260507010035 60 285 1.7 4.3 0.00 0.24 0.24 90 1009.1
20260507004531 61 330 0.9 6.1 0.00 0.24 0.24 89 1008.8
20260507003028 62 340 0.9 6.1 0.00 0.24 0.24 90 1008.7
20260507001600 62 357 2.6 8.7 0.00 0.24 0.24 91 1008.4
20260507000027 62 274 0.9 3.5 0.00 0.24 0.24 93 1007.7
20260506234526 63 275 0.0 1.7 0.00 0.24 0.24 92 1007.5
20260506233026 63 266 0.0 1.7 0.00 0.24 0.24 91 1007.2
20260506231525 63 306 1.7 5.2 0.00 0.24 0.24 90 1007.4
20260506230035 64 268 0.9 7.0 0.00 0.24 0.24 89 1007.2
20260506224524 64 251 3.5 7.8 0.00 0.24 0.24 88 1007.0
20260506223029 65 276 1.7 7.8 0.00 0.24 0.24 87 1007.0
20260506221521 65 231 1.7 5.2 0.00 0.24 0.24 86 1006.9
20260506220021 65 261 4.3 8.7 0.00 0.24 0.24 86 1006.9
20260506214520 65 274 2.6 6.1 0.00 0.24 0.24 87 1006.5
20260506213020 65 294 1.7 5.2 0.00 0.24 0.24 87 1006.4
20260506211522 65 278 0.9 6.1 0.00 0.24 0.24 87 1006.5
20260506210040 65 274 2.6 7.8 0.00 0.24 0.24 87 1006.2
20260506204518 65 278 2.6 8.7 0.00 0.24 0.24 88 1006.0
20260506203018 64 269 1.7 8.7 0.00 0.24 0.24 88 1006.1
20260506201520 64 245 1.7 5.2 0.00 0.24 0.24 90 1006.3
20260506200014 63 285 2.6 6.1 0.00 0.24 0.24 90 1006.2
20260506194516 63 265 1.7 7.0 0.00 0.24 0.24 90 1006.4
20260506193022 63 272 4.3 12.2 0.00 0.24 0.24 89 1006.4
20260506191512 64 295 1.7 10.4 0.00 0.24 0.24 89 1006.4
20260506190013 63 263 3.5 11.3 0.00 0.24 0.24 89 1006.4
20260506184512 63 238 3.5 8.7 0.00 0.24 0.24 88 1006.6
20260506183009 63 271 3.5 8.7 0.00 0.24 0.24 89 1006.6
20260506181511 62 273 3.5 9.6 0.00 0.24 0.24 92 1006.7
20260506180010 61 277 2.6 7.0 0.00 0.24 0.24 94 1006.9
20260506174508 60 210 0.0 5.2 0.00 0.24 0.24 94 1006.9
20260506173007 60 269 2.6 6.1 0.00 0.24 0.24 94 1006.9
20260506171505 60 252 4.3 8.7 0.00 0.24 0.24 94 1007.0
20260506170004 60 278 4.3 10.4 0.00 0.24 0.24 94 1007.0
20260506164509 60 284 1.7 7.8 0.01 0.24 0.24 95 1006.9
20260506163006 60 274 3.5 6.1 0.01 0.24 0.24 95 1006.7
20260506161600 60 262 3.5 9.6 0.02 0.24 0.24 95 1007.0
20260506160118 60 276 3.5 9.6 0.06 0.24 0.24 96 1007.1
20260506154557 60 287 0.9 6.1 0.08 0.23 0.23 97 1006.9
20260506153055 59 290 3.5 6.1 0.10 0.23 0.23 96 1006.6
20260506151555 59 268 0.9 7.0 0.10 0.22 0.22 96 1006.9
20260506144550 59 252 3.5 12.2 0.07 0.15 0.15 95 1007.8
20260506143049 59 248 3.5 12.2 0.07 0.13 0.13 94 1007.8
20260506141547 59 272 4.3 9.6 0.08 0.12 0.12 94 1007.6
20260506140045 59 261 4.3 7.8 0.08 0.11 0.11 93 1007.3
20260506134543 59 274 2.6 7.0 0.05 0.08 0.08 92 1007.3
20260506133052 60 270 1.7 5.2 0.05 0.06 0.06 91 1007.4
20260506131538 60 233 1.7 7.8 0.03 0.04 0.04 89 1007.5
20260506130037 61 259 2.6 6.1 0.03 0.03 0.03 88 1007.4
20260506124535 61 259 2.6 7.0 0.02 0.02 0.02 86 1007.6
20260506123034 61 278 1.7 8.7 0.01 0.01 0.01 84 1007.8
20260506121531 62 242 3.5 8.7 0.01 0.01 0.01 83 1007.9
20260506120048 62 285 3.5 11.3 0.00 0.00 0.00 82 1007.9
20260506114526 62 255 4.3 8.7 0.00 0.00 0.00 80 1007.7
20260506113023 63 278 5.2 12.2 0.00 0.00 0.00 77 1007.3
20260506111520 63 279 2.6 6.1 0.00 0.00 0.00 76 1007.3
20260506110019 64 287 4.3 13.9 0.00 0.00 0.00 75 1007.2
20260506104527 64 255 1.7 7.0 0.00 0.00 0.00 74 1006.9
20260506103034 64 230 3.5 8.7 0.00 0.00 0.00 72 1006.9
20260506101513 64 276 1.7 5.2 0.00 0.00 0.00 71 1006.8
20260506100011 65 269 2.6 8.7 0.00 0.00 0.00 70 1006.8
20260506094512 65 293 0.9 7.0 0.00 0.00 0.00 69 1006.7
20260506093017 66 249 3.5 6.1 0.00 0.00 0.00 68 1006.6
20260506091506 66 275 2.6 7.8 0.00 0.00 0.00 67 1006.8
20260506090004 66 278 1.7 8.7 0.00 0.00 0.00 67 1007.0
20260506084503 66 275 1.7 7.0 0.00 0.00 0.00 66 1007.0
20260506083101 67 288 3.5 11.3 0.00 0.00 0.00 65 1007.0
20260506081601 67 229 3.5 7.8 0.00 0.00 0.00 65 1007.1
20260506073052 68 251 4.3 10.4 0.00 0.00 0.00 61 1007.2
20260506071550 68 256 2.6 9.6 0.00 0.00 0.00 61 1007.3